星链-5654 (STARLINK-5654 )

导读 | 豆包AI

STARLINK-5654是美国太空探索技术公司(SpaceX)星链互联网卫星星座中的一颗卫星,于2023年1月26日发射入轨。星链计划旨在构建全球卫星互联网覆盖网络,为全球偏远地区等提供高速互联网服务,该卫星加入星座后进一步提升了星链网络的覆盖能力和服务容量。

Basic Information
目录编号:
55366
目录名称:
STARLINK-5654
国际标识:
2023-013AM
轨道中心:
EARTH
卫星名称:
星链-5654
卫星全名:
星链-5654 (STARLINK-5654 )
卫星状态:
在轨 (已飞行1190 天)
发射日期:
2023-01-26 UTC
国别 :
美国 (US)
星等 :
--
Orbit Information
数据来源 国际轨道数据 AOE轨道数据
星历时间 2026-04-30T07:54:05+0800
13小时前
查看轨道信息
2026-04-30T17:00:00+0800
4小时前
查看轨道信息
半长轴 6863.684km 6863.703km
偏心率 0.0001725 0.0001667
轨道倾角 43.005° 43.004°
近地点辐角 276.649° 272.893°
升交点赤经 358.641° 356.504°
平近点角 83.416° 13.322°
近地点 484.363km 484.421km
远地点 486.731km 486.711km
周期 94.318分钟 94.319分钟
每日圈数 15.267462 15.2674
Detailed Information
固有亮度:
5
最大亮度:
2.5
卫星平台:
Starlink v1.5
覆盖范围:
全球
运营商:
太空探索技术公司
运营商所在国:
美国
制造商(研发单位):
太空探索技术公司
制造商所在国:
美国
使用方式:
暂无
Satellite Introduction
星链(Starlink)计划是由太空探索技术公司(SpaceX)提出的一个巨型低轨卫星互联网星座项目,计划在2019年至2024年间在太空搭建由约1.2万颗卫星组成的“星链”网络,其中1584颗将部署在地球上空550千米处的近地轨道,并从2020年开始工作。该卫星仍在工作。
2D Orbit Map
3D Orbit Map
Orbit Altitude Analysis Chart
Orbit Inclination Analysis Chart
Orbit Comprehensive Analysis Chart
View Comprehensive Chart